N1JOT Weather Reports


Display with metric or nautical units.
time (UTC)temp
F
wind
direction
speed
MPH
gust
MPH
rain 1hr
in
rain 24hr
in
rain mn
in
humidity
%
barometer
mb
20260504022058 40 0 0.0 0.0 0.00 0.00 0.00 69 1010.7
20260504021556 40 0 0.0 0.0 0.00 0.00 0.00 69 1010.7
20260504021058 40 0 0.0 0.0 0.00 0.00 0.00 70 1010.8
20260504020558 40 0 0.0 0.0 0.00 0.00 0.00 68 1010.8
20260504020059 41 0 0.0 0.0 0.00 0.00 0.00 66 1010.7
20260504015600 41 0 0.0 0.0 0.00 0.00 0.00 66 1010.7
20260504015100 41 0 0.0 0.0 0.00 0.00 0.00 66 1010.6
20260504014559 41 0 0.0 0.0 0.00 0.00 0.00 66 1010.6
20260504014059 41 0 0.0 0.0 0.00 0.00 0.00 66 1010.5
20260504013558 41 0 0.0 0.0 0.00 0.00 0.00 66 1010.5
20260504013114 42 0 0.0 0.0 0.00 0.00 0.00 63 1010.5
20260504012600 42 0 0.0 0.0 0.00 0.00 0.00 62 1010.4
20260504012101 42 0 0.0 0.0 0.00 0.00 0.00 62 1010.3
20260504011559 42 0 0.0 0.0 0.00 0.00 0.00 63 1010.3
20260504011058 43 0 0.0 0.0 0.00 0.00 0.00 60 1010.2
20260504010557 43 0 0.0 0.0 0.00 0.00 0.00 59 1010.1
20260504010104 43 0 0.0 0.0 0.00 0.00 0.00 61 1010.1
20260504005600 44 0 0.0 0.0 0.00 0.00 0.00 60 1010.1
20260504005059 44 0 0.0 0.0 0.00 0.00 0.00 57 1010.0
20260504004622 44 0 0.0 0.0 0.00 0.00 0.00 56 1009.9
20260504004058 44 0 0.0 0.0 0.00 0.00 0.00 55 1009.8
20260504003558 45 0 0.0 0.0 0.00 0.00 0.00 56 1009.8
20260504003102 45 0 0.0 0.0 0.00 0.00 0.00 56 1009.7
20260504002558 46 0 0.0 0.0 0.00 0.00 0.00 60 1009.7
20260504002102 46 0 0.0 0.0 0.00 0.00 0.00 50 1009.6
20260504001607 47 0 0.0 0.0 0.00 0.00 0.00 51 1009.5
20260504001102 48 0 0.0 2.0 0.00 0.00 0.00 52 1009.4
20260504000558 48 0 0.0 3.0 0.00 0.00 0.00 44 1009.4
20260504000056 49 0 1.0 3.0 0.00 0.00 0.00 42 1009.4
20260503235601 49 269 1.0 3.0 0.00 0.00 0.00 42 1009.4
20260503235100 50 217 1.0 4.0 0.00 0.00 0.00 40 1009.3
20260503234558 50 254 1.0 6.0 0.00 0.00 0.00 41 1009.3
20260503234058 51 239 2.0 10.0 0.00 0.00 0.00 39 1009.1
20260503233600 51 288 3.0 10.0 0.00 0.00 0.00 39 1009.1
20260503233058 51 304 3.0 9.0 0.00 0.00 0.00 39 1009.0
20260503232558 51 337 3.0 8.0 0.00 0.00 0.00 38 1009.0
20260503232058 51 229 1.0 9.0 0.00 0.00 0.00 38 1008.9
20260503231559 51 320 3.0 9.0 0.00 0.00 0.00 38 1008.7
20260503231101 52 254 4.0 10.0 0.00 0.00 0.00 37 1008.8
20260503230559 52 267 5.0 11.0 0.00 0.00 0.00 37 1008.7
20260503230104 52 286 4.0 13.0 0.00 0.00 0.00 38 1008.6
20260503225558 52 292 4.0 13.0 0.00 0.00 0.00 37 1008.6
20260503225058 52 300 5.0 13.0 0.00 0.00 0.00 37 1008.6
20260503224606 52 267 4.0 11.0 0.00 0.00 0.00 37 1008.4
20260503224059 52 286 3.0 13.0 0.00 0.00 0.00 37 1008.3
20260503223559 52 262 2.0 14.0 0.00 0.00 0.00 37 1008.3
20260503223059 52 263 6.0 14.0 0.00 0.00 0.00 36 1008.2
20260503222558 52 221 4.0 12.0 0.00 0.00 0.00 37 1008.1
20260503222100 52 314 4.0 11.0 0.00 0.00 0.00 37 1008.0
20260503221558 52 248 5.0 11.0 0.00 0.00 0.00 38 1008.0
20260503221103 52 267 3.0 14.0 0.00 0.00 0.00 38 1007.9
20260503220559 53 229 5.0 16.0 0.00 0.00 0.00 37 1007.8
20260503215559 53 318 6.0 16.0 0.00 0.00 0.00 37 1007.6
20260503215058 53 253 4.0 16.0 0.00 0.00 0.00 38 1007.6
20260503214607 53 294 5.0 14.0 0.00 0.00 0.00 37 1007.4
20260503214058 53 240 3.0 17.0 0.00 0.00 0.00 37 1007.3
20260503213559 53 316 7.0 17.0 0.00 0.00 0.00 37 1007.3
20260503213057 53 260 6.0 16.0 0.00 0.00 0.00 36 1007.3
20260503212558 53 218 5.0 16.0 0.00 0.00 0.00 37 1007.2
20260503212059 53 307 5.0 12.0 0.00 0.00 0.00 37 1007.0
20260503211605 53 225 4.0 16.0 0.00 0.00 0.00 39 1006.9
20260503211057 54 236 2.0 17.0 0.00 0.00 0.00 38 1007.0
20260503210558 53 352 9.0 17.0 0.00 0.00 0.00 37 1006.8
20260503210058 53 277 7.0 19.0 0.00 0.00 0.00 37 1006.9
20260503205559 53 311 5.0 19.0 0.00 0.00 0.00 39 1006.8
20260503205059 53 298 6.0 19.0 0.00 0.00 0.00 39 1006.8
20260503204559 54 223 5.0 14.0 0.00 0.00 0.00 39 1006.6
20260503204058 54 248 4.0 14.0 0.00 0.00 0.00 38 1006.5
20260503203558 54 311 6.0 12.0 0.00 0.00 0.00 38 1006.4
20260503203104 54 128 5.0 12.0 0.00 0.00 0.00 37 1006.4
20260503202636 54 286 6.0 16.0 0.00 0.00 0.00 38 1006.4
20260503202058 54 271 7.0 16.0 0.00 0.00 0.00 38 1006.5
20260503201558 53 245 6.0 14.0 0.00 0.00 0.00 38 1006.4
20260503201058 53 275 2.0 12.0 0.00 0.00 0.00 40 1006.4
20260503200558 53 249 6.0 12.0 0.00 0.00 0.00 40 1006.4
20260503200100 53 321 3.0 12.0 0.00 0.00 0.00 41 1006.3
20260503195558 53 246 4.0 12.0 0.00 0.00 0.00 41 1006.4
20260503195100 53 275 3.0 8.0 0.00 0.00 0.00 45 1006.4
20260503194600 53 297 4.0 8.0 0.00 0.00 0.00 42 1006.5
20260503194059 53 293 2.0 10.0 0.00 0.00 0.00 45 1006.5
20260503193558 52 263 3.0 10.0 0.00 0.00 0.00 45 1006.5
20260503193100 52 234 2.0 10.0 0.00 0.00 0.00 45 1006.5
20260503192558 52 298 3.0 9.0 0.00 0.00 0.00 46 1006.6
20260503192058 52 331 4.0 11.0 0.00 0.00 0.00 45 1006.6
20260503191558 52 250 5.0 11.0 0.00 0.00 0.00 44 1006.4
20260503191059 53 240 5.0 11.0 0.00 0.00 0.00 44 1006.5
20260503190558 53 319 4.0 9.0 0.00 0.00 0.00 43 1006.4
20260503190058 54 257 1.0 11.0 0.00 0.00 0.00 44 1006.5
20260503185558 54 234 4.0 16.0 0.00 0.00 0.00 44 1006.5
20260503185059 53 0 2.0 16.0 0.00 0.00 0.00 47 1006.5
20260503184608 52 280 4.0 9.0 0.00 0.00 0.00 47 1006.6
20260503184058 52 208 4.0 9.0 0.00 0.00 0.00 47 1006.6
20260503183558 51 320 2.0 10.0 0.00 0.00 0.00 48 1006.6
20260503183102 51 227 6.0 13.0 0.00 0.00 0.00 47 1006.6
20260503182601 51 286 3.0 13.0 0.00 0.00 0.00 47 1006.6
20260503182058 51 279 4.0 12.0 0.00 0.00 0.00 47 1006.6
20260503181602 52 240 4.0 12.0 0.00 0.00 0.00 47 1006.5
20260503181058 52 274 5.0 13.0 0.00 0.00 0.00 46 1006.5
20260503180558 52 355 6.0 14.0 0.00 0.00 0.00 46 1006.5
20260503180057 52 240 6.0 14.0 0.00 0.00 0.00 45 1006.4
20260503175557 52 248 5.0 11.0 0.00 0.00 0.00 47 1006.4
20260503175059 53 255 4.0 12.0 0.00 0.00 0.00 47 1006.5
20260503174617 52 299 3.0 13.0 0.00 0.00 0.00 50 1006.5
20260503174058 51 277 6.0 13.0 0.00 0.00 0.00 48 1006.5
20260503173559 51 289 4.0 9.0 0.00 0.00 0.00 50 1006.5
20260503173103 51 238 3.0 16.0 0.00 0.00 0.00 53 1006.6
20260503172558 49 322 5.0 16.0 0.00 0.00 0.00 52 1006.7
20260503172058 49 261 5.0 16.0 0.00 0.00 0.00 53 1006.6
20260503171558 49 281 5.0 18.0 0.00 0.00 0.00 54 1006.7
20260503171059 49 294 5.0 18.0 0.00 0.00 0.00 55 1006.8
20260503170600 49 271 6.0 18.0 0.00 0.00 0.00 54 1006.7
20260503160115 46 257 4.0 14.0 0.00 0.00 0.00 76 1006.5
20260503150558 45 270 5.0 14.0 0.00 0.00 0.00 75 1006.5
20260503150104 46 288 5.0 14.0 0.00 0.00 0.00 74 1006.5
20260503140109 48 311 5.0 13.0 0.00 0.00 0.00 66 1005.9
20260503131100 47 330 5.0 13.0 0.00 0.00 0.00 67 1006.3
20260503130559 47 269 3.0 12.0 0.00 0.00 0.00 67 1006.2
20260503130103 47 245 4.0 12.0 0.00 0.00 0.00 68 1006.2
20260503120104 46 285 6.0 15.0 0.00 0.00 0.00 70 1006.7
20260503110558 44 285 2.0 7.0 0.00 0.00 0.00 73 1006.8
20260503100126 45 257 1.0 9.0 0.00 0.00 0.00 74 1006.9
20260503081611 46 276 2.0 8.0 0.00 0.00 0.00 72 1007.5
20260503081100 46 290 2.0 9.0 0.00 0.00 0.00 72 1007.4
20260503080601 46 279 2.0 9.0 0.00 0.00 0.00 72 1007.4
20260503072601 47 306 2.0 7.0 0.00 0.00 0.00 70 1008.0
20260503072101 47 30 3.0 8.0 0.00 0.00 0.00 70 1008.1
20260503071558 47 260 1.0 10.0 0.00 0.00 0.00 70 1008.2
20260503071101 47 263 3.0 10.0 0.00 0.00 0.00 69 1008.2
20260503070601 47 273 2.0 10.0 0.00 0.00 0.00 69 1008.2
20260503070103 47 328 4.0 11.0 0.00 0.00 0.00 69 1008.4
20260503055057 49 322 2.0 6.0 0.00 0.00 0.00 70 1009.3
20260503054558 49 245 2.0 10.0 0.00 0.00 0.00 71 1009.2
20260503054057 49 302 3.0 10.0 0.00 0.00 0.00 73 1009.4
20260503053601 48 289 2.0 9.0 0.00 0.00 0.00 76 1009.5
20260503053102 48 10 2.0 7.0 0.00 0.00 0.00 80 1009.5
20260503052603 48 283 2.0 7.0 0.00 0.00 0.00 83 1009.4
20260503052057 48 329 2.0 7.0 0.00 0.00 0.00 85 1009.4
20260503051601 48 284 0.0 3.0 0.00 0.00 0.00 87 1009.4
20260503051101 48 0 1.0 3.0 0.00 0.00 0.00 87 1009.5
20260503050609 48 0 0.0 3.0 0.00 0.00 0.00 88 1009.5
20260503045603 48 0 0.0 1.0 0.00 0.00 0.00 88 1009.8
20260503045101 48 0 0.0 1.0 0.00 0.00 0.00 88 1009.8
20260503044559 48 0 0.0 1.0 0.00 0.00 0.00 88 1009.9
20260503044058 48 0 0.0 1.0 0.00 0.00 0.00 88 1009.8
20260503043557 48 0 0.0 1.0 0.00 0.00 0.00 89 1010.0
20260503043122 48 0 0.0 1.0 0.00 0.00 0.00 89 1010.0
20260503042601 48 0 0.0 0.0 0.00 0.00 0.00 89 1010.0
20260503042101 48 0 0.0 0.0 0.00 0.00 0.00 89 1010.1
20260503041600 48 0 0.0 0.0 0.00 0.00 0.00 89 1010.2
20260503041101 48 0 0.0 1.0 0.00 0.00 0.00 89 1010.5
20260503040559 48 0 0.0 1.0 0.00 0.00 0.00 89 1010.5
20260503040104 48 198 0.0 0.0 0.00 0.00 0.00 89 1010.5
20260503035603 48 0 0.0 0.0 0.00 0.00 0.00 89 1010.4
20260503035059 48 0 0.0 2.0 0.00 0.00 0.00 89 1010.5
20260503034612 48 0 0.0 2.0 0.00 0.00 0.00 89 1010.3
20260503034101 48 0 0.0 2.0 0.00 0.00 0.00 89 1010.4
20260503033600 48 0 0.0 0.0 0.00 0.00 0.00 89 1010.3
20260503033059 48 0 0.0 1.0 0.00 0.00 0.00 89 1010.3
20260503032559 48 0 0.0 1.0 0.00 0.00 0.00 89 1010.6
20260503032104 48 0 0.0 1.0 0.00 0.00 0.00 89 1010.6
20260503031600 48 0 0.0 0.0 0.00 0.00 0.00 89 1010.5
20260503031100 48 0 0.0 0.0 0.00 0.00 0.00 89 1010.4
20260503030559 48 0 0.0 0.0 0.00 0.00 0.00 88 1010.4
20260503030059 48 0 0.0 0.0 0.00 0.00 0.00 88 1010.4
20260503025558 48 0 0.0 0.0 0.00 0.00 0.00 88 1010.6
20260503025059 49 0 0.0 0.0 0.00 0.00 0.00 88 1010.5
20260503024559 49 0 0.0 0.0 0.00 0.00 0.00 88 1010.5
20260503024103 49 0 0.0 1.0 0.00 0.00 0.00 88 1010.6
20260503023601 49 0 0.0 1.0 0.00 0.00 0.00 88 1010.6
20260503023100 49 0 0.0 0.0 0.00 0.00 0.00 87 1010.6
20260503022601 49 0 0.0 0.0 0.00 0.00 0.00 87 1010.5